Change the Weather History Date:

Saturday, June 15, 2013

  Actual Average Record
Temperature  
Mean Temperature 54 °F -  
Max Temperature 59 °F 64 °F 78 °F (2011)
Min Temperature 48 °F 44 °F 44 °F (2000)
Degree Days  
Heating Degree Days 10    
Growing Degree Days 4 (Base 50)    
Moisture  
Dew Point 44 °F    
Average Humidity 66    
Maximum Humidity 87    
Minimum Humidity 48    
Precipitation  
Precipitation 0.00 in - - ()
Sea Level Pressure  
Sea Level Pressure 30.34 in    
Wind  
Wind Speed 12 mph ()    
Max Wind Speed 21 mph    
Max Gust Speed -    
Visibility 7.8 miles    
Events      
Averages and records for this station are not official NWS values.
T = Trace of Precipitation, MM = Missing Value Source: Averaged Metar Reports

Daily Weather History Graph

Daily Weather History Graph

Search for Another Location

Airport or City:

Trip Planner

Search our weather history database for the weather conditions in past years. The results will help you decide how hot, cold, wet, or windy it might be!

Date:

Astronomy

Jun. 15, 2013 Rise Set
Actual Time 7:33 AM SAST 5:27 PM SAST
Civil Twilight 7:06 AM SAST 5:55 PM SAST
Nautical Twilight 6:34 AM SAST 6:26 PM SAST
Astronomical Twilight 6:04 AM SAST 6:57 PM SAST
Moon 11:41 AM SAST (6/15) 11:47 PM SAST (6/15)
Length of Visible Light 10h 49m
Length of Day
9h 53m
Waxing Crescent, 37% of the Moon is Illuminated
Jun 15
Waxing Crescent
Jun 16
First Quarter
Jun 23
Full
Jun 30
Last Quarter
Jul 8
New

Hourly Weather History & Observations

Time (SAST) Temp. Dew Point Humidity Pressure Visibility Wind Dir Wind Speed Gust Speed Precip Events Conditions
12:00 AM 53.6 °F 44.6 °F 72% 30.18 in 6.2 mi West 19.6 mph - N/A   Mostly Cloudy
1:00 AM 53.6 °F 42.8 °F 67% 30.21 in 6.2 mi West 18.4 mph - N/A   Partly Cloudy
2:00 AM 53 °F 42 °F 57% 30.23 in 12 mi West 20.7 mph - -  
2:00 AM 53.6 °F 42.8 °F 67% 30.21 in - West 19.6 mph - N/A   Clear
3:00 AM 51.8 °F 42.8 °F 71% 30.24 in - West 16.1 mph - N/A   Clear
4:00 AM 51.8 °F 42.8 °F 71% 30.27 in 6.2 mi WNW 16.1 mph - N/A   Scattered Clouds
5:00 AM 52 °F 40 °F 54% 30.29 in 12 mi WNW 15.0 mph - -   Scattered Clouds
5:00 AM 51.8 °F 41.0 °F 67% 30.27 in 6.2 mi WNW 15.0 mph - N/A   Partly Cloudy
6:00 AM 53.6 °F 41.0 °F 62% 30.27 in 6.2 mi WNW 17.3 mph - N/A   Scattered Clouds
7:00 AM 53.6 °F 41.0 °F 62% 30.30 in 6.2 mi WNW 13.8 mph - N/A   Mostly Cloudy
8:00 AM 53 °F 41 °F 52% 30.34 in 12 mi WNW 12.7 mph - -   Mostly Cloudy
8:00 AM 53.6 °F 41.0 °F 62% 30.33 in 6.2 mi WNW 12.7 mph - N/A   Mostly Cloudy
9:00 AM 53.6 °F 41.0 °F 62% 30.36 in 6.2 mi West 11.5 mph - N/A   Mostly Cloudy
10:00 AM 55.4 °F 42.8 °F 63% 30.39 in 6.2 mi West 13.8 mph - N/A   Mostly Cloudy
11:00 AM 57 °F 43 °F 48% 30.40 in 12 mi West 13.8 mph - -   Mostly Cloudy
12:00 PM 57.2 °F 42.8 °F 59% 30.39 in 6.2 mi West 12.7 mph - N/A   Mostly Cloudy
1:00 PM 59.0 °F 44.6 °F 59% 30.39 in 6.2 mi WSW 13.8 mph - N/A   Mostly Cloudy
2:00 PM 58 °F 46 °F 55% 30.39 in 12 mi WNW 6.9 mph - -   Mostly Cloudy
2:00 PM 59.0 °F 46.4 °F 63% 30.39 in 6.2 mi WNW 6.9 mph - N/A   Mostly Cloudy
3:00 PM 59.0 °F 46.4 °F 63% 30.39 in 6.2 mi WSW 10.4 mph - N/A   Mostly Cloudy
4:00 PM 59.0 °F 44.6 °F 59% 30.39 in 6.2 mi West 4.6 mph - N/A   Mostly Cloudy
5:00 PM 56 °F 49 °F 69% 30.41 in 12 mi SSW 8.1 mph - -   Mostly Cloudy
5:00 PM 57.2 °F 48.2 °F 72% 30.39 in 6.2 mi SSW 8.1 mph - N/A   Mostly Cloudy
6:00 PM 55.4 °F 48.2 °F 77% 30.39 in 6.2 mi WSW 4.6 mph - N/A   Mostly Cloudy
7:00 PM 55.4 °F 48.2 °F 77% 30.42 in 6.2 mi NNW 3.5 mph - N/A   Mostly Cloudy
8:00 PM 54 °F 48 °F 74% 30.44 in 12 mi 1.2 mph - -   Mostly Cloudy
8:00 PM 53.6 °F 48.2 °F 82% 30.42 in 6.2 mi Calm Calm - N/A   Mostly Cloudy
10:00 PM 50.0 °F 46.4 °F 87% 30.42 in - NNW 3.5 mph - N/A   Clear
11:00 PM 48.2 °F 42.8 °F 82% 30.42 in - North 3.5 mph - N/A   Clear